PA3DZX-13 Weather Reports


time (UTC)temp
C
wind
direction
speed
KPH
gust
KPH
rain 1hr
cm
rain 24hr
cm
rain mn
cm
humidity
%
barometer
mb
20260906082120 15 182 6.4 9.7 0.00 0.00 0.00 68 1027.3
20260906080620 15 185 6.4 9.7 0.00 0.00 0.00 69 1027.2
20260906075120 15 187 3.2 9.7 0.00 0.00 0.00 72 1027.2
20260906073620 12 191 3.2 6.4 0.00 0.00 0.00 82 1027.2
20260906072120 12 189 3.2 3.2 0.00 0.00 0.00 84 1027.2
20260906070619 11 187 0.0 3.2 0.00 0.00 0.00 88 1027.1
20260906065119 10 145 0.0 3.2 0.00 0.00 0.00 92 1027.0
20260906063619 10 144 3.2 3.2 0.00 0.00 0.00 94 1026.9
20260906062118 8 155 3.2 3.2 0.00 0.00 0.00 97 1026.9
20260906060618 6 141 0.0 3.2 0.00 0.00 0.00 97 1026.8
20260906055117 6 158 0.0 3.2 0.00 0.00 0.00 96 1026.9
20260906053617 5 128 0.0 3.2 0.00 0.00 0.00 96 1026.7
20260906052117 5 134 0.0 3.2 0.00 0.00 0.00 97 1026.6
20260906050616 5 148 0.0 3.2 0.00 0.00 0.00 96 1026.7
20260906045115 6 128 0.0 0.0 0.00 0.00 0.00 98 1026.6
20260906043615 6 132 0.0 3.2 0.00 0.00 0.00 97 1026.6
20260906042114 7 140 3.2 3.2 0.00 0.00 0.00 96 1026.6
20260906040615 7 168 3.2 3.2 0.00 0.00 0.00 95 1026.6
20260906035114 7 158 3.2 3.2 0.00 0.00 0.00 95 1026.7
20260906033614 8 161 3.2 6.4 0.00 0.00 0.00 96 1026.8
20260906032113 7 175 3.2 6.4 0.00 0.00 0.00 95 1026.9
20260906030613 6 177 3.2 6.4 0.00 0.00 0.00 94 1027.0
20260906025112 5 168 3.2 3.2 0.00 0.00 0.00 94 1026.9
20260906023612 6 171 0.0 3.2 0.00 0.00 0.00 96 1026.7
20260906022111 6 157 0.0 3.2 0.00 0.00 0.00 96 1026.7
20260906020611 7 149 3.2 3.2 0.00 0.00 0.00 96 1026.5
20260906015111 6 154 3.2 3.2 0.00 0.00 0.00 93 1026.5
20260906013611 6 136 0.0 3.2 0.00 0.00 0.00 94 1026.5
20260906012110 8 171 0.0 3.2 0.00 0.00 0.00 95 1026.8
20260906010610 7 198 0.0 3.2 0.00 0.00 0.00 97 1026.7
20260906005110 7 184 3.2 6.4 0.00 0.00 0.00 96 1026.5
20260906003609 7 173 3.2 6.4 0.00 0.00 0.00 94 1026.6
20260906002109 7 168 3.2 6.4 0.00 0.00 0.00 97 1026.5
20260906000609 7 186 0.0 0.0 0.00 0.00 0.00 94 1026.4
20260905235108 8 196 3.2 3.2 0.00 0.00 0.00 93 1026.4
20260905233609 8 220 0.0 3.2 0.00 0.00 0.00 93 1026.3
20260905232108 8 220 0.0 3.2 0.00 0.00 0.00 93 1026.3
20260905230608 10 195 0.0 3.2 0.00 0.00 0.00 93 1026.2
20260905225107 10 220 3.2 3.2 0.00 0.00 0.00 93 1026.0
20260905223608 10 238 3.2 3.2 0.00 0.00 0.00 92 1025.8
20260905222107 10 258 3.2 3.2 0.00 0.00 0.00 88 1025.8
20260905220606 10 285 3.2 3.2 0.00 0.00 0.00 90 1025.7
20260905215105 10 251 3.2 3.2 0.00 0.00 0.00 89 1025.7
20260905213605 10 231 3.2 6.4 0.00 0.00 0.00 88 1025.6
20260905212104 10 267 6.4 6.4 0.00 0.00 0.00 84 1025.6
20260905210605 10 245 6.4 6.4 0.00 0.00 0.00 85 1025.5
20260905205105 10 263 3.2 6.4 0.00 0.00 0.00 84 1025.4
20260905203604 10 259 3.2 6.4 0.00 0.00 0.00 83 1025.3
20260905202105 11 265 3.2 6.4 0.00 0.00 0.00 83 1025.3
20260905200605 11 265 6.4 9.7 0.00 0.00 0.00 78 1025.2
20260905195104 12 241 3.2 6.4 0.00 0.00 0.00 79 1025.0
20260905193604 12 262 3.2 6.4 0.00 0.00 0.00 76 1024.9
20260905192104 13 283 6.4 9.7 0.00 0.00 0.00 71 1024.7
20260905190604 13 285 6.4 12.9 0.00 0.00 0.00 72 1024.7
20260905185103 13 285 6.4 9.7 0.00 0.00 0.00 72 1024.4
20260905183603 15 284 6.4 17.7 0.00 0.00 0.00 70 1024.3
20260905182102 15 296 9.7 17.7 0.00 0.00 0.00 67 1024.2
20260905180602 15 299 9.7 17.7 0.00 0.00 0.00 66 1024.2
20260905175101 16 299 17.7 27.4 0.00 0.00 0.00 63 1024.0
20260905173601 16 299 17.7 27.4 0.00 0.00 0.00 63 1024.0
20260905172101 16 275 20.9 32.2 0.00 0.00 0.00 57 1023.6
20260905170601 17 274 20.9 32.2 0.00 0.00 0.00 56 1023.5
20260905165100 17 283 17.7 32.2 0.00 0.00 0.00 55 1023.1
20260905163600 17 290 12.9 32.2 0.00 0.00 0.00 58 1022.9
20260905162100 17 278 20.9 35.4 0.00 0.00 0.00 57 1022.7
20260905160600 18 282 17.7 27.4 0.00 0.00 0.00 60 1022.6
20260905155100 17 295 17.7 24.1 0.00 0.00 0.00 62 1022.4
20260905153600 17 300 12.9 20.9 0.00 0.00 0.00 64 1022.3
20260905152059 17 306 12.9 24.1 0.00 0.00 0.00 66 1022.2
20260905150559 17 298 12.9 24.1 0.00 0.00 0.00 65 1022.1
20260905145058 17 261 20.9 32.2 0.00 0.00 0.00 62 1021.8
20260905143559 17 259 20.9 32.2 0.00 0.00 0.00 62 1021.8
20260905142058 17 270 20.9 38.6 0.00 0.00 0.00 63 1021.6
20260905140557 17 269 24.1 38.6 0.00 0.00 0.00 63 1021.6
20260905135057 18 271 20.9 35.4 0.00 0.00 0.00 61 1021.2
20260905133558 18 264 20.9 35.4 0.00 0.00 0.00 59 1021.1
20260905132057 18 273 20.9 35.4 0.00 0.00 0.00 60 1021.2
20260905130557 18 276 24.1 41.8 0.00 0.00 0.00 59 1021.1
20260905125057 17 273 20.9 38.6 0.00 0.00 0.00 61 1020.8
20260905123558 17 269 20.9 35.4 0.00 0.00 0.00 64 1020.8
20260905122057 18 279 24.1 35.4 0.00 0.00 0.00 61 1020.5
20260905120557 17 288 20.9 38.6 0.00 0.00 0.00 62 1020.5
20260905115056 17 300 20.9 32.2 0.00 0.00 0.00 61 1020.2
20260905113556 17 304 17.7 32.2 0.00 0.00 0.00 62 1020.0
20260905112055 18 288 17.7 32.2 0.00 0.00 0.00 61 1019.7
20260905110555 17 284 17.7 32.2 0.00 0.00 0.00 63 1019.9
20260905105055 17 259 24.1 38.6 0.00 0.00 0.00 65 1019.6
20260905103555 18 256 24.1 41.8 0.00 0.00 0.00 63 1019.4
20260905102054 17 260 24.1 35.4 0.00 0.00 0.00 68 1019.2
20260905101825 17 260 24.1 35.4 0.00 0.00 0.00 68 1019.2
20260905100324 16 253 24.1 38.6 0.00 0.00 0.00 70 1019.0
20260905095529 17 252 24.1 41.8 0.00 0.00 0.00 64 1018.8
20260905094027 18 249 24.1 46.7 0.00 0.00 0.00 67 1018.6
20260905092527 17 257 32.2 46.7 0.00 0.00 0.00 68 1018.6
20260905091026 17 251 24.1 38.6 0.00 0.00 0.00 71 1018.4
20260905085526 17 243 20.9 35.4 0.00 0.00 0.00 75 1018.3
20260905084025 17 237 24.1 41.8 0.00 0.00 0.00 73 1018.0